Location: Conjunto Santa Maria
(19.9513°S, 43.9599°W)
Time: 13:46:22
(UTC+00:00)

Meteor 2-21 - Pass Details

Date: 21 January 2021
Orbit: 934 x 966 km, 82.6° (Epoch: 03 March)

Event Time Altitude Azimuth Distance (km) Brightness Sun altitude
Rises 22:20:19 0° 182° (S) 3,614 7.9 -9.3°
Reaches altitude 10° 22:22:50 10° 179° (S) 2,662 7.1 -9.9°
Maximum altitude 22:28:54 71° 95° (E) 989 4.4 -11.1°
Drops below altitude 10° 22:34:53 10° 11° (NNE) 2,636 6.4 -12.4°
Sets 22:37:22 0° 9° (N) 3,575 7.1 -12.9°
